SCP
0 -0 0 -0 -0 0 -0 0 0 -0 0 0 0 0 0 0 0 0 0 0 0 0 0 1 1 2 2 2 2 1 0 0 0 0 0 0 0 0 0 0 0 0 0 0
0 0 0 0 0 0 -0 0 -0 -0 -0 0 0 0 0 0 0 0 0 0 0 0 1 2 2 2 2 1 1 0 0 0 0 0 0 0 0 0 0 0 0 0 0 0
0 0 0 0 0 -0 -0 -0 0 0 -0 0 0 0 0 0 0 0 0 0 0 1 1 1 1 1 0 0 0 0 0 0 0 0 0 0 0 0 0 0 0 0 0 0
0 0 0 0 0 0 0 -0 -0 -0 -0 0 0 0 0 0 0 0 0 0 0 0 0 0 0 0 0 0 0 0 0 0 0 0 0 0 0 0 0 0 0 0 0 0
0 0 0 0 0 0 0 0 0 -0 0 0 0 0 0 0 0 0 0 0 0 0 0 0 0 0 0 0 0 0 0 0 0 0 0 0 0 0 0 0 0 0 0 0
0 0 0 0 0 0 0 0 0 0 0 0 0 0 0 0 0 0 0 0 0 0 0 0 0 0 0 0 0 0 0 0 0 0 0 0 0 0 0 0 0 0 0 0
0 0 0 0 0 0 0 0 0 0 0 0 0 0 0 0 0 0 0 0 0 0 0 0 0 0 0 0 0 0 0 0 0 0 0 0 0 0 0 0 0 0 0 0
0 0 0 0 0 0 0 -0 0 0 0 0 0 0 0 0 0 0 0 0 0 0 0 0 0 0 0 0 0 0 0 0 0 0 0 0 0 0 0 0 0 0 0 0
0 0 0 0 0 0 0 0 0 0 0 0 0 0 0 0 0 0 0 0 0 0 0 0 0 0 0 0 0 0 0 0 0 0 0 0 0 0 0 0 0 0 0 0
0 0 0 0 0 0 0 0 0 0 0 0 0 0 0 0 0 0 0 0 0 0 0 0 0 0 0 0 0 0 0 0 0 0 0 0 0 0 0 0 0 0 0 0
0 0 0 0 0 0 0 0 0 0 0 0 0 0 0 0 0 0 0 0 0 0 0 0 0 0 0 0 0 0 0 0 0 0 0 0 0 0 0 0 0 0 0 0
0 0 0 0 0 0 0 0 0 0 0 0 0 0 0 0 0 0 0 0 0 0 0 0 0 0 0 0 0 0 0 0 0 0 0 0 0 0 0 0 0 0 0 0
0 0 0 0 0 0 0 0 0 0 0 0 0 0 0 0 0 0 0 0 0 0 0 0 0 0 0 0 0 0 0 0 0 0 0 0 0 0 0 0 0 0 0 0
0 0 0 0 0 0 0 0 0 0 0 0 0 0 0 0 0 0 0 0 0 0 0 0 0 0 0 0 0 0 0 0 0 0 0 0 0 0 0 0 0 0 0 0
0 0 0 0 0 0 0 0 0 0 0 0 0 0 0 0 0 0 0 0 0 0 0 0 0 0 0 0 0 0 0 0 0 0 0 0 0 0 0 0 0 0 0 0
0 0 0 0 0 0 0 0 0 0 0 0 0 0 0 0 0 0 0 0 0 0 0 0 0 0 0 0 0 0 0 0 0 0 0 0 0 0 0 0 0 0 0 0
0 0 0 0 0 0 0 0 0 0 0 0 0 0 0 0 0 0 0 0 0 0 0 0 0 0 0 0 0 0 0 0 0 0 0 0 0 0 0 0 0 0 0 0
0 0 0 0 0 0 0 0 0 0 0 0 0 0 0 0 0 0 0 0 0 0 0 0 0 0 0 0 0 0 0 0 0 0 0 0 0 0 0 0 0 0 0 0
0 0 0 0 0 0 0 0 0 0 0 0 0 0 0 0 0 0 0 0 0 0 0 0 0 0 0 0 0 0 0 0 0 0 0 0 0 0 0 0 0 0 0 0
0 0 0 0 0 0 0 0 0 0 0 0 0 0 0 0 0 0 0 0 0 0 0 0 0 0 0 0 0 0 0 0 0 0 0 0 0 0 0 0 0 0 0 0
0 0 0 0 0 0 0 0 0 0 0 0 0 0 0 0 0 0 0 0 0 0 0 0 0 0 0 0 0 0 0 0 0 0 0 0 0 0 0 0 0 0 0 0
0 0 0 0 0 0 0 0 0 0 0 0 0 0 0 0 0 0 0 0 0 0 0 0 0 0 0 0 0 0 0 0 0 0 0 0 0 0 0 0 0 0 0 0
0 0 0 0 0 0 0 0 0 0 0 0 0 0 0 0 0 0 0 0 0 0 0 0 0 0 0 0 0 0 0 0 0 0 0 0 0 0 0 0 0 0 0 0
0 0 0 0 0 0 0 0 0 0 0 0 0 0 0 0 0 0 0 0 0 0 0 0 0 0 0 0 0 0 0 0 0 0 0 0 0 0 0 0 0 0 0 0
0 0 0 0 0 0 0 0 0 0 0 0 0 0 0 0 0 0 0 0 0 0 0 0 0 0 0 0 0 0 0 0 0 0 0 0 0 0 0 0 0 0 0 0
0 0 0 0 0 0 0 0 0 0 0 0 0 0 0 0 0 0 0 0 0 0 0 0 0 0 0 0 0 0 0 0 0 0 0 0 0 0 0 0 0 0 0 0
0 0 0 0 0 0 0 0 0 0 0 0 0 0 0 0 0 0 0 0 0 0 0 0 0 0 0 0 0 0 0 0 0 0 0 0 0 0 0 0 0 0 0 0
Wind_Speed_500mb
45 39 34 46 47 44 44 39 34 33 36 26 23 22 23 18 17 21 26 27 28 27 28 29 29 29 28 29 31 32 38 36 27 19 15 14 15 17 18 17 16 16 16 16
43 41 35 37 36 37 40 42 40 38 39 26 28 24 26 12 16 24 25 28 30 32 30 30 30 31 28 26 26 24 22 18 17 16 17 16 14 14 11 9 5 2 2 5
34 37 39 33 35 38 39 38 34 36 33 31 26 25 27 31 25 28 24 25 27 30 31 30 32 31 30 30 30 29 28 25 22 18 15 14 15 15 17 15 11 5 5 4
16 6 31 20 29 40 44 41 34 34 35 32 34 35 21 17 21 24 27 32 35 35 35 35 37 36 37 34 33 31 29 25 22 21 21 22 20 16 13 10 8 5 9 16
17 23 26 37 20 26 30 32 34 33 32 35 35 6 12 17 24 34 34 34 36 37 38 38 38 37 36 35 33 31 30 28 27 27 26 24 21 18 15 7 7 11 8 8
14 29 38 25 28 29 27 26 28 29 23 12 12 15 21 38 37 38 39 37 38 36 35 35 35 35 36 34 33 33 32 31 29 27 25 25 16 6 3 4 4 3 2 5
25 19 16 20 28 31 27 28 18 12 16 17 19 26 6 45 44 43 41 39 38 36 34 34 34 35 35 34 34 34 34 30 25 22 18 10 2 7 7 5 2 5 10 10
19 21 28 7 22 28 31 46 15 22 23 21 19 19 40 47 49 49 46 42 39 38 37 35 34 36 36 36 35 32 27 22 17 12 11 12 12 8 4 0 3 6 14 13
16 11 20 37 39 45 46 31 22 26 26 26 34 39 46 52 53 51 46 43 39 38 38 35 35 35 37 35 33 28 24 22 21 19 16 13 9 5 2 3 6 10 13 13
24 22 27 24 41 37 22 34 29 24 26 31 44 47 51 53 55 53 50 46 42 42 42 41 37 36 35 34 31 28 26 24 21 18 14 10 6 4 4 7 8 11 12 16
31 34 48 38 25 30 35 30 25 21 24 32 42 51 56 57 57 54 50 47 46 45 44 41 38 36 32 29 28 27 27 24 19 16 13 8 7 6 8 16 16 16 20 24
17 28 24 35 31 19 27 36 30 31 31 37 43 51 55 54 53 53 52 48 46 44 43 40 37 34 30 27 27 27 24 21 19 15 13 10 7 11 17 20 19 21 24 25
32 41 24 23 25 26 19 33 31 31 33 35 40 46 51 50 51 52 49 48 45 44 42 40 36 32 28 28 25 23 20 18 16 11 10 8 5 4 5 22 28 32 33 33
34 18 28 26 13 25 23 25 29 25 29 37 41 40 44 46 49 49 49 46 45 43 41 39 37 34 29 25 24 19 15 14 10 8 6 5 7 9 10 12 13 12 23 36
24 25 25 21 15 13 14 21 25 31 38 42 44 55 52 50 51 49 49 48 46 43 39 37 35 32 27 25 20 14 9 9 9 9 10 11 11 10 11 12 14 16 19 20
10 12 14 19 18 15 15 19 23 27 34 41 49 49 52 52 57 55 49 51 54 49 46 42 36 28 23 18 12 8 11 10 9 8 9 10 11 11 11 12 14 16 18 22
15 15 16 23 19 16 16 17 21 26 32 39 46 52 61 72 71 68 65 59 51 50 44 33 26 23 13 10 15 13 9 10 11 10 10 13 14 14 14 15 16 18 19 26
14 16 11 11 14 15 14 17 24 31 40 54 66 72 69 66 61 59 63 55 49 44 36 27 21 17 17 17 14 12 11 13 12 13 14 17 18 19 17 15 17 19 21 23
15 14 14 17 10 16 23 33 39 45 49 58 62 59 54 52 59 56 52 45 41 33 25 18 15 14 11 9 8 11 13 13 14 16 17 22 19 18 17 17 19 20 22 24
12 9 7 12 15 16 29 33 40 50 53 52 53 60 62 57 50 46 41 35 25 20 17 15 10 7 7 7 10 13 14 16 17 20 23 21 18 21 18 23 23 22 22 24
32 30 32 34 39 37 38 41 46 53 52 57 62 61 58 51 40 33 29 26 20 16 11 6 5 6 8 11 14 17 18 19 20 19 18 19 20 19 21 21 22 23 24 26
42 48 50 52 55 55 51 53 55 57 55 49 45 44 44 41 33 27 18 12 12 7 5 6 6 9 13 16 18 21 23 23 22 19 19 20 22 23 23 23 24 24 26 27
52 56 58 60 62 63 59 54 49 43 43 40 38 35 33 28 21 14 12 6 6 7 6 11 15 22 22 23 23 23 22 22 21 22 23 23 25 24 25 25 26 27 28 29
54 55 56 54 52 49 51 43 40 38 38 36 32 27 20 14 11 6 4 5 7 8 15 20 22 24 25 24 22 22 22 21 23 25 26 29 27 28 27 28 28 29 30 33
51 49 47 45 47 45 41 37 38 34 31 28 22 16 11 12 3 1 4 8 8 8 20 23 25 27 25 22 19 22 23 22 25 29 27 25 27 28 29 29 30 31 36 39
46 48 47 46 41 36 34 32 34 30 24 22 19 15 13 12 9 7 8 11 15 15 17 22 23 27 22 22 24 24 24 24 25 26 30 27 28 29 30 31 31 33 36 39
46 41 39 40 39 35 31 28 25 23 20 19 16 15 13 13 13 9 11 12 13 17 17 19 21 24 26 24 23 24 27 26 28 31 29 28 28 28 30 30 32 38 41 42
Wind_Direction_500mb
230 245 231 218 217 223 237 231 232 247 253 251 265 261 276 276 184 227 222 214 202 187 172 165 159 157 158 157 161 173 193 202 208 213 225 233 239 237 230 226 234 241 246 254
233 235 249 254 248 236 238 234 244 244 260 263 285 277 271 231 237 225 222 212 205 200 181 171 164 158 156 151 151 151 153 164 163 153 157 166 170 166 159 170 181 206 343 355
233 228 232 240 242 245 244 248 239 245 257 263 261 248 249 257 230 235 202 189 180 175 170 165 159 151 146 143 142 142 142 144 152 156 156 155 145 134 123 122 135 127 137 264
215 268 238 241 237 233 241 252 240 241 253 267 275 271 275 272 239 206 185 166 160 156 149 144 141 139 135 135 134 135 135 138 137 133 131 129 131 129 122 116 131 195 269 277
219 226 245 233 222 225 246 242 238 254 263 268 297 246 209 221 204 184 175 163 154 150 145 139 136 135 133 131 130 128 127 129 130 129 128 128 129 132 152 197 242 282 322 357
193 230 230 235 231 221 247 253 252 254 265 276 229 226 252 185 175 169 167 163 153 147 141 137 136 136 134 132 132 129 130 130 129 131 137 155 169 162 266 346 88 125 181 294
226 240 246 226 228 201 210 248 265 231 249 254 252 237 226 165 168 168 168 160 152 147 143 143 143 142 138 138 135 135 134 139 151 160 161 145 139 95 117 149 162 274 305 297
233 233 236 165 155 200 222 247 225 225 238 240 235 158 162 165 166 166 164 162 157 153 151 150 149 147 143 140 139 137 141 144 148 146 128 125 135 126 116 171 313 318 300 308
224 234 218 192 219 224 243 275 219 237 226 211 180 175 173 170 169 169 168 165 162 158 150 148 151 152 147 146 145 143 137 135 136 134 129 131 137 133 143 326 307 294 307 308
266 267 261 227 241 261 253 243 262 238 227 199 185 183 180 176 173 171 170 168 165 160 156 153 155 156 154 151 148 145 142 139 138 138 137 133 134 127 188 249 278 300 305 302
252 254 265 260 253 260 261 255 239 224 218 205 187 187 185 181 177 173 173 170 168 164 160 156 154 152 150 148 147 146 146 145 145 150 148 143 181 205 274 290 297 294 292 299
245 261 265 255 255 276 254 245 245 236 208 197 194 189 185 182 178 173 172 171 167 165 160 157 152 148 147 148 154 153 151 156 167 171 175 154 173 302 300 298 298 302 303 303
256 270 286 280 276 272 276 250 235 226 215 198 189 186 185 179 175 172 169 168 167 163 157 150 146 139 139 148 151 154 159 175 182 180 176 203 233 251 255 306 312 318 318 319
259 262 275 263 280 262 234 220 214 205 203 189 176 181 180 175 170 166 165 163 160 155 151 147 143 146 142 147 162 173 182 178 163 162 200 224 247 261 274 277 282 292 308 307
257 248 254 262 263 248 209 203 194 186 179 174 174 167 172 169 164 161 157 153 150 148 143 138 133 134 149 153 152 153 172 187 205 240 256 265 271 277 276 286 287 293 300 307
271 267 265 256 248 225 206 194 192 182 173 163 161 165 162 160 157 147 146 150 146 143 149 149 150 147 144 150 149 186 222 241 249 261 278 280 286 281 283 288 290 294 298 298
280 280 281 264 249 227 215 196 190 178 163 157 154 151 156 150 144 147 148 153 155 147 146 151 155 137 123 189 201 199 232 250 263 259 261 274 277 283 284 291 291 293 297 298
317 316 324 295 242 208 177 158 153 149 151 156 155 152 148 151 153 151 149 151 148 139 142 146 163 174 195 203 211 234 251 267 270 273 280 281 283 283 287 290 293 296 297 297
16 37 54 77 108 141 140 143 154 160 162 160 158 154 157 152 146 141 139 142 137 143 146 152 174 195 202 220 243 261 268 274 281 283 283 289 291 291 294 291 292 294 299 302
47 60 93 120 136 162 150 145 146 144 149 151 148 142 139 138 138 138 141 135 145 149 147 168 190 208 237 267 282 289 289 288 287 289 288 286 288 290 294 297 297 298 301 302
79 87 95 104 109 115 119 127 132 132 136 137 134 134 135 136 142 142 139 135 135 142 161 192 229 269 298 314 308 303 300 298 298 293 290 291 293 295 291 292 295 299 299 298
89 97 101 106 108 109 114 118 120 124 125 125 128 132 136 132 132 126 122 123 136 160 207 233 264 294 315 322 308 307 301 297 293 291 289 289 290 289 290 292 295 297 297 302
94 99 103 103 102 105 110 109 109 112 111 114 117 120 118 111 98 93 104 120 172 214 241 274 297 303 311 314 304 301 297 295 296 290 289 287 284 285 288 291 294 298 301 301
89 88 90 98 104 102 95 96 104 107 110 109 105 98 91 95 106 121 148 207 255 265 276 299 309 315 317 308 302 298 298 296 292 289 286 285 292 290 290 291 295 297 298 303
82 83 84 85 84 83 88 90 90 87 87 87 86 85 92 104 115 63 300 293 301 313 304 308 310 309 311 305 302 300 301 296 287 281 286 284 286 288 290 291 292 294 296 304
77 79 81 83 81 79 80 82 81 79 74 74 68 53 33 22 19 354 318 309 308 310 296 310 310 311 314 313 301 302 298 295 293 287 284 292 293 293 291 291 292 295 300 304
79 74 71 70 68 70 73 74 71 66 74 65 50 39 32 15 0 344 338 326 322 323 326 320 321 308 308 303 304 298 293 293 291 289 294 300 298 295 292 292 294 298 304 306
Wind_Speed_850mb
45 39 34 46 47 44 44 39 34 33 36 26 23 22 23 18 17 21 26 27 28 27 28 29 29 29 28 29 31 32 38 36 27 19 15 14 15 17 18 17 16 16 16 16
43 41 35 37 36 37 40 42 40 38 39 26 28 24 26 12 16 24 25 28 30 32 30 30 30 31 28 26 26 24 22 18 17 16 17 16 14 14 11 9 5 2 2 5
34 37 39 33 35 38 39 38 34 36 33 31 26 25 27 31 25 28 24 25 27 30 31 30 32 31 30 30 30 29 28 25 22 18 15 14 15 15 17 15 11 5 5 4
16 6 31 20 29 40 44 41 34 34 35 32 34 35 21 17 21 24 27 32 35 35 35 35 37 36 37 34 33 31 29 25 22 21 21 22 20 16 13 10 8 5 9 16
17 23 26 37 20 26 30 32 34 33 32 35 35 6 12 17 24 34 34 34 36 37 38 38 38 37 36 35 33 31 30 28 27 27 26 24 21 18 15 7 7 11 8 8
14 29 38 25 28 29 27 26 28 29 23 12 12 15 21 38 37 38 39 37 38 36 35 35 35 35 36 34 33 33 32 31 29 27 25 25 16 6 3 4 4 3 2 5
25 19 16 20 28 31 27 28 18 12 16 17 19 26 6 45 44 43 41 39 38 36 34 34 34 35 35 34 34 34 34 30 25 22 18 10 2 7 7 5 2 5 10 10
19 21 28 7 22 28 31 46 15 22 23 21 19 19 40 47 49 49 46 42 39 38 37 35 34 36 36 36 35 32 27 22 17 12 11 12 12 8 4 0 3 6 14 13
16 11 20 37 39 45 46 31 22 26 26 26 34 39 46 52 53 51 46 43 39 38 38 35 35 35 37 35 33 28 24 22 21 19 16 13 9 5 2 3 6 10 13 13
24 22 27 24 41 37 22 34 29 24 26 31 44 47 51 53 55 53 50 46 42 42 42 41 37 36 35 34 31 28 26 24 21 18 14 10 6 4 4 7 8 11 12 16
31 34 48 38 25 30 35 30 25 21 24 32 42 51 56 57 57 54 50 47 46 45 44 41 38 36 32 29 28 27 27 24 19 16 13 8 7 6 8 16 16 16 20 24
17 28 24 35 31 19 27 36 30 31 31 37 43 51 55 54 53 53 52 48 46 44 43 40 37 34 30 27 27 27 24 21 19 15 13 10 7 11 17 20 19 21 24 25
32 41 24 23 25 26 19 33 31 31 33 35 40 46 51 50 51 52 49 48 45 44 42 40 36 32 28 28 25 23 20 18 16 11 10 8 5 4 5 22 28 32 33 33
34 18 28 26 13 25 23 25 29 25 29 37 41 40 44 46 49 49 49 46 45 43 41 39 37 34 29 25 24 19 15 14 10 8 6 5 7 9 10 12 13 12 23 36
24 25 25 21 15 13 14 21 25 31 38 42 44 55 52 50 51 49 49 48 46 43 39 37 35 32 27 25 20 14 9 9 9 9 10 11 11 10 11 12 14 16 19 20
10 12 14 19 18 15 15 19 23 27 34 41 49 49 52 52 57 55 49 51 54 49 46 42 36 28 23 18 12 8 11 10 9 8 9 10 11 11 11 12 14 16 18 22
15 15 16 23 19 16 16 17 21 26 32 39 46 52 61 72 71 68 65 59 51 50 44 33 26 23 13 10 15 13 9 10 11 10 10 13 14 14 14 15 16 18 19 26
14 16 11 11 14 15 14 17 24 31 40 54 66 72 69 66 61 59 63 55 49 44 36 27 21 17 17 17 14 12 11 13 12 13 14 17 18 19 17 15 17 19 21 23
15 14 14 17 10 16 23 33 39 45 49 58 62 59 54 52 59 56 52 45 41 33 25 18 15 14 11 9 8 11 13 13 14 16 17 22 19 18 17 17 19 20 22 24
12 9 7 12 15 16 29 33 40 50 53 52 53 60 62 57 50 46 41 35 25 20 17 15 10 7 7 7 10 13 14 16 17 20 23 21 18 21 18 23 23 22 22 24
32 30 32 34 39 37 38 41 46 53 52 57 62 61 58 51 40 33 29 26 20 16 11 6 5 6 8 11 14 17 18 19 20 19 18 19 20 19 21 21 22 23 24 26
42 48 50 52 55 55 51 53 55 57 55 49 45 44 44 41 33 27 18 12 12 7 5 6 6 9 13 16 18 21 23 23 22 19 19 20 22 23 23 23 24 24 26 27
52 56 58 60 62 63 59 54 49 43 43 40 38 35 33 28 21 14 12 6 6 7 6 11 15 22 22 23 23 23 22 22 21 22 23 23 25 24 25 25 26 27 28 29
54 55 56 54 52 49 51 43 40 38 38 36 32 27 20 14 11 6 4 5 7 8 15 20 22 24 25 24 22 22 22 21 23 25 26 29 27 28 27 28 28 29 30 33
51 49 47 45 47 45 41 37 38 34 31 28 22 16 11 12 3 1 4 8 8 8 20 23 25 27 25 22 19 22 23 22 25 29 27 25 27 28 29 29 30 31 36 39
46 48 47 46 41 36 34 32 34 30 24 22 19 15 13 12 9 7 8 11 15 15 17 22 23 27 22 22 24 24 24 24 25 26 30 27 28 29 30 31 31 33 36 39
46 41 39 40 39 35 31 28 25 23 20 19 16 15 13 13 13 9 11 12 13 17 17 19 21 24 26 24 23 24 27 26 28 31 29 28 28 28 30 30 32 38 41 42
Wind_Direction_850mb
230 245 231 218 217 223 237 231 232 247 253 251 265 261 276 276 184 227 222 214 202 187 172 165 159 157 158 157 161 173 193 202 208 213 225 233 239 237 230 226 234 241 246 254
233 235 249 254 248 236 238 234 244 244 260 263 285 277 271 231 237 225 222 212 205 200 181 171 164 158 156 151 151 151 153 164 163 153 157 166 170 166 159 170 181 206 343 355
233 228 232 240 242 245 244 248 239 245 257 263 261 248 249 257 230 235 202 189 180 175 170 165 159 151 146 143 142 142 142 144 152 156 156 155 145 134 123 122 135 127 137 264
215 268 238 241 237 233 241 252 240 241 253 267 275 271 275 272 239 206 185 166 160 156 149 144 141 139 135 135 134 135 135 138 137 133 131 129 131 129 122 116 131 195 269 277
219 226 245 233 222 225 246 242 238 254 263 268 297 246 209 221 204 184 175 163 154 150 145 139 136 135 133 131 130 128 127 129 130 129 128 128 129 132 152 197 242 282 322 357
193 230 230 235 231 221 247 253 252 254 265 276 229 226 252 185 175 169 167 163 153 147 141 137 136 136 134 132 132 129 130 130 129 131 137 155 169 162 266 346 88 125 181 294
226 240 246 226 228 201 210 248 265 231 249 254 252 237 226 165 168 168 168 160 152 147 143 143 143 142 138 138 135 135 134 139 151 160 161 145 139 95 117 149 162 274 305 297
233 233 236 165 155 200 222 247 225 225 238 240 235 158 162 165 166 166 164 162 157 153 151 150 149 147 143 140 139 137 141 144 148 146 128 125 135 126 116 171 313 318 300 308
224 234 218 192 219 224 243 275 219 237 226 211 180 175 173 170 169 169 168 165 162 158 150 148 151 152 147 146 145 143 137 135 136 134 129 131 137 133 143 326 307 294 307 308
266 267 261 227 241 261 253 243 262 238 227 199 185 183 180 176 173 171 170 168 165 160 156 153 155 156 154 151 148 145 142 139 138 138 137 133 134 127 188 249 278 300 305 302
252 254 265 260 253 260 261 255 239 224 218 205 187 187 185 181 177 173 173 170 168 164 160 156 154 152 150 148 147 146 146 145 145 150 148 143 181 205 274 290 297 294 292 299
245 261 265 255 255 276 254 245 245 236 208 197 194 189 185 182 178 173 172 171 167 165 160 157 152 148 147 148 154 153 151 156 167 171 175 154 173 302 300 298 298 302 303 303
256 270 286 280 276 272 276 250 235 226 215 198 189 186 185 179 175 172 169 168 167 163 157 150 146 139 139 148 151 154 159 175 182 180 176 203 233 251 255 306 312 318 318 319
259 262 275 263 280 262 234 220 214 205 203 189 176 181 180 175 170 166 165 163 160 155 151 147 143 146 142 147 162 173 182 178 163 162 200 224 247 261 274 277 282 292 308 307
257 248 254 262 263 248 209 203 194 186 179 174 174 167 172 169 164 161 157 153 150 148 143 138 133 134 149 153 152 153 172 187 205 240 256 265 271 277 276 286 287 293 300 307
271 267 265 256 248 225 206 194 192 182 173 163 161 165 162 160 157 147 146 150 146 143 149 149 150 147 144 150 149 186 222 241 249 261 278 280 286 281 283 288 290 294 298 298
280 280 281 264 249 227 215 196 190 178 163 157 154 151 156 150 144 147 148 153 155 147 146 151 155 137 123 189 201 199 232 250 263 259 261 274 277 283 284 291 291 293 297 298
317 316 324 295 242 208 177 158 153 149 151 156 155 152 148 151 153 151 149 151 148 139 142 146 163 174 195 203 211 234 251 267 270 273 280 281 283 283 287 290 293 296 297 297
16 37 54 77 108 141 140 143 154 160 162 160 158 154 157 152 146 141 139 142 137 143 146 152 174 195 202 220 243 261 268 274 281 283 283 289 291 291 294 291 292 294 299 302
47 60 93 120 136 162 150 145 146 144 149 151 148 142 139 138 138 138 141 135 145 149 147 168 190 208 237 267 282 289 289 288 287 289 288 286 288 290 294 297 297 298 301 302
79 87 95 104 109 115 119 127 132 132 136 137 134 134 135 136 142 142 139 135 135 142 161 192 229 269 298 314 308 303 300 298 298 293 290 291 293 295 291 292 295 299 299 298
89 97 101 106 108 109 114 118 120 124 125 125 128 132 136 132 132 126 122 123 136 160 207 233 264 294 315 322 308 307 301 297 293 291 289 289 290 289 290 292 295 297 297 302
94 99 103 103 102 105 110 109 109 112 111 114 117 120 118 111 98 93 104 120 172 214 241 274 297 303 311 314 304 301 297 295 296 290 289 287 284 285 288 291 294 298 301 301
89 88 90 98 104 102 95 96 104 107 110 109 105 98 91 95 106 121 148 207 255 265 276 299 309 315 317 308 302 298 298 296 292 289 286 285 292 290 290 291 295 297 298 303
82 83 84 85 84 83 88 90 90 87 87 87 86 85 92 104 115 63 300 293 301 313 304 308 310 309 311 305 302 300 301 296 287 281 286 284 286 288 290 291 292 294 296 304
77 79 81 83 81 79 80 82 81 79 74 74 68 53 33 22 19 354 318 309 308 310 296 310 310 311 314 313 301 302 298 295 293 287 284 292 293 293 291 291 292 295 300 304
79 74 71 70 68 70 73 74 71 66 74 65 50 39 32 15 0 344 338 326 322 323 326 320 321 308 308 303 304 298 293 293 291 289 294 300 298 295 292 292 294 298 304 306